Regional Weather Roundup
Issued by NWS

Home | Current Version | Previous Version | Graphics & Text | Print | Product List | Glossary On
Versions: 1 2 3 4 5 6 7 8 9 10 11 12 13 14 15 16 17 18 19 20 21 22 23 24 25 26 27 28 29 30 31 32 33 34 35 36 37 38 39 40 41 42 43 44 45 46 47 48 49 50
623
ASUS43 KIND 251759
RWRIN

WEATHER ROUNDUP FOR INDIANA
NATIONAL WEATHER SERVICE INDIANAPOLIS IN
200 PM EDT WED MAY 25 2016

NOTE: "FAIR" INDICATES FEW OR NO CLOUDS BELOW 12,000 FEET WITH NO
SIGNIFICANT WEATHER AND/OR OBSTRUCTIONS TO VISIBILITY.

* - STATION DOES NOT REPORT WEATHER SUCH AS PRECIPITATION OR FOG.

+ - STATION NOT QUALITY CONTROLLED BY THE NATIONAL WEATHER SERVICE.
    USE DATA WITH CAUTION...ESPECIALLY DEWPOINT AND RELATIVE
    HUMIDITY OBSERVATIONS.

INZ001>003-010>013-019-020-251900-
NORTHWEST INDIANA

CITY           SKY/WX    TMP DP  RH WIND       PRES   REMARKS
GARY /AIRPORT/ PTSUNNY   84  70  61 S8        29.99F
RENSSELAER +   SUNNY     82  55  39 S13       30.00F

$$

LMZ046-743>745-251900-
SOUTHERN LAKE MICHIGAN

STATION/POSITION TIME  TEMP    WIND        PRES    WAVE
                       AIR SEA DIR/SP/G            HT
                 (UTC) (F)     (DEG/KT/KT) (MB)    (FT)
BURNS HARBOR     1700   79     200/  8/ 13 1016.3S
MICHIGAN CITY    1700   79     150/  8/ 10   N/A
5NW MICH CITY    1700   72 60  210/  2/  4   N/A     1

$$

INZ004-005-014>016-021>024-251900-
NORTH CENTRAL INDIANA

CITY           SKY/WX    TMP DP  RH WIND       PRES   REMARKS
ELKHART        MOSUNNY   82  66  57 S12       30.02F
GOSHEN         MOSUNNY   84  59  42 S12G22    30.03S
6HR MIN TEMP:  68; 6HR MAX TEMP:  84;

SOUTH BEND     MOSUNNY   83  61  47 S13G18    30.02F
6HR MIN TEMP:  67; 6HR MAX TEMP:  83;


$$

INZ006>009-017-018-025>027-251900-
NORTHEAST INDIANA

CITY           SKY/WX    TMP DP  RH WIND       PRES   REMARKS
ANGOLA *+      MOSUNNY   81  63  54 S10       30.05S
FORT WAYNE     MOSUNNY   83  59  44 S16       30.05F
6HR MIN TEMP:  66; 6HR MAX TEMP:  83; 6HR PCP: TRACE;


$$

INZ028-029-035-036-043>045-051>053-251900-
WEST CENTRAL INDIANA

CITY           SKY/WX    TMP DP  RH WIND       PRES   REMARKS
CRAWFORDSVL +  MOSUNNY   81  62  52 S17G24    30.04F
6HR MIN TEMP:  62; 6HR MAX TEMP:  82;

GREENCASTLE +  CLOUDY    79  68  69 S14G23    30.06F
LAFAYETTE      SUNNY     82  60  47 SW6G18    30.01F
6HR MIN TEMP:  66; 6HR MAX TEMP:  82;

TERRE HAUTE    CLOUDY    82  64  54 S13       30.04F
6HR MIN TEMP:  66; 6HR MAX TEMP:  82;


$$

INZ030>032-037>040-046>048-054>057-064-065-251900-
CENTRAL INDIANA

CITY           SKY/WX    TMP DP  RH WIND       PRES   REMARKS
COLUMBUS       SUNNY     81  63  54 S14       30.07F
INDIANAPOLIS   PTSUNNY   82  62  50 S12       30.04F
6HR MIN TEMP:  67; 6HR MAX TEMP:  82;

-EAGLE CREEK   MOSUNNY   83  61  47 S12G20    30.04F
6HR MIN TEMP:  68; 6HR MAX TEMP:  83;

KOKOMO *+      SUNNY     82  63  51 SW17G24   30.03F
6HR MIN TEMP:  64; 6HR MAX TEMP:  82;

SHELBYVILLE    MOSUNNY   84  60  44 SW13G21   30.06F
6HR MIN TEMP:  70; 6HR MAX TEMP:  84;


$$

INZ033-034-041-042-049-050-058-059-251900-
EAST CENTRAL INDIANA

CITY           SKY/WX    TMP DP  RH WIND       PRES   REMARKS
MUNCIE         MOSUNNY   84  58  40 SW15G21   30.06F
6HR MIN TEMP:  69; 6HR MAX TEMP:  84;


$$

INZ060-061-067>069-081>083-085>088-251900-
SOUTHWEST INDIANA

CITY           SKY/WX    TMP DP  RH WIND       PRES   REMARKS
EVANSVILLE     LGT RAIN  72  65  78 SW7       30.12R
6HR MIN TEMP:  65; 6HR MAX TEMP:  78; 6HR PCP: TRACE;

HUNTINGBURG *+ CLOUDY    79  64  61 W15       30.11S
6HR MIN TEMP:  64; 6HR MAX TEMP:  81;


$$

INZ062-063-066-070>080-084-089>092-251900-
SOUTH CENTRAL AND SOUTHEAST INDIANA

CITY           SKY/WX    TMP DP  RH WIND       PRES   REMARKS
BLOOMINGTON    CLOUDY    83  61  47 SW9       30.07F
6HR MIN TEMP:  67; 6HR MAX TEMP:  83;

MADISON *+     CLOUDY    79  59  50 S9        30.13S
SEYMOUR +      PTSUNNY   82  64  54 S12G18    30.08S

$$





USA.gov is the U.S. government's official web portal to all federal, state and local government web resources and services.